Simultaneous Nadir Overpasses (SNOs) Predictions

Prediction of SNOs between GOES-15 and NOAA-20 Satellite Orbit:

Table of predicted SNOs for the next 14.0 days since TLE Epoch: 11/12/2022
Index Date Time (GOES-15) GOES-15 Lat,Lon NOAA-20 Lat,Lon Distance(km) Time Diff (sec)
1 11/12/2022 09:58:55 0.11,-128.37 0.18,-128.83 51.80 80
2 11/13/2022 09:42:49 0.12,-128.36 -0.81,-124.30 463.36 80
3 11/14/2022 22:02:05 -0.09,-128.26 -0.38,-129.59 151.61 80
4 11/15/2022 21:45:59 -0.10,-128.25 0.62,-125.06 363.56 80
5 11/17/2022 10:05:06 0.08,-128.29 0.53,-130.33 232.19 80
6 11/18/2022 09:49:01 0.09,-128.27 -0.47,-125.79 282.62 80
7 11/19/2022 22:08:16 -0.06,-128.17 -0.71,-131.09 333.27 80
8 11/20/2022 21:52:11 -0.07,-128.15 0.30,-126.56 181.55 80
9 11/22/2022 10:11:18 0.05,-128.19 0.85,-131.83 414.55 80
10 11/23/2022 09:55:13 0.07,-128.16 -0.15,-127.29 99.59 80
11 11/25/2022 21:55:41 -0.06,-128.01 -0.06,-128.05 4.53 80
